Погода в Чуриках

Россия / Рязанская область     53°58′04″N   39°14′14″E
темп.,
°C
ветер,
м/с
пор.,
м/с
влажн.,
%
обл.,
%
осадки,
мм/ч
давл.,
гПа
погр.,
м
15 июня, вт
вт1500:00+16с129126 3.2 101511
03:00+16св11905 4.3 101411
06:00+17с23905 0.0 101493
09:00+21ссз22774 0.1 1014376
12:00+24всв11595 1.8 10131026
15:00+25ссв11586 1.8 10111489
18:00+25ссз12686 0.1 10101197
21:00+18с118490 3.1 101011
16 июня, ср
ср1600:00+17с118694 1.5 101011
03:00+16ссз2289100 1.5 101024
06:00+17ссз249227 0.0 1010141
09:00+21ссз448018 0.0 1011494
12:00+23ссз66732 1.1 1011934
15:00+23ссз677015 1.4 10121238
18:00+22ссз58765 0.1 1013697
21:00+17с512790 0.2 1016300
17 июня, чт
чт1700:00+15с411910 0.0 1018230
03:00+12ссв49802 0.0 1020168
06:00+12с49800 0.0 1021206
09:00+17ссв57671 0.0 1022480
12:00+20ссв56590 0.0 10231169
15:00+21ссв56540 0.0 10241417
18:00+20с46680 0.0 1024383
21:00+15св35775 0.0 102577
18 июня, пт
пт1800:00+13всв33785 0.0 102643
03:00+13св22835 0.0 102711
06:00+15св23833 0.0 1028106
09:00+19всв236812 0.0 1028461
12:00+22в23578 0.0 10281309
15:00+23в22544 0.0 10281520
18:00+22вюв12607 0.0 10281162
21:00+17ююз117419 0.0 102811
19 июня, сб
сб1900:00+15юз117991 0.0 102911
03:00+14юз11845 0.0 102911
06:00+16зюз01800 0.0 103042
09:00+20ю22710 0.0 1029482
12:00+23ю23630 0.0 10281253
15:00+24ююз22580 0.0 10271399
18:00+23ююз22680 0.0 1026921
21:00+18зюз12790 0.0 102611